Copenhagen, Denmark

12:55 AM CEST on May 26, 2017 (GMT +0200)
Kastrup

Weather History for EKCH - July, 2013

Change the Weather History Date:

Wednesday, July 10, 2013

  Actual Average Record
Temperature  
Mean Temperature 63 °F -  
Max Temperature 68 °F 69 °F 84 °F (2005)
Min Temperature 58 °F 55 °F 50 °F (1998)
Degree Days  
Heating Degree Days 2    
Growing Degree Days 13 (Base 50)    
Moisture  
Dew Point 51 °F    
Average Humidity 64    
Maximum Humidity 83    
Minimum Humidity 42    
Precipitation  
Precipitation 0.00 in - - ()
Sea Level Pressure  
Sea Level Pressure 29.99 in    
Wind  
Wind Speed 15 mph ()    
Max Wind Speed 25 mph    
Max Gust Speed 33 mph    
Visibility 6.7 miles    
Events      
Averages and records for this station are not official NWS values.
T = Trace of Precipitation, MM = Missing Value Source: Averaged Metar Reports

Daily Weather History Graph

Daily Weather History Graph

Search for Another Location

Airport or City:

Trip Planner

Search our weather history database for the weather conditions in past years. The results will help you decide how hot, cold, wet, or windy it might be!

Date:

Astronomy

Jul. 10, 2013 Rise Set
Actual Time 4:39 AM CEST 9:48 PM CEST
Civil Twilight 3:43 AM CEST 10:45 PM CEST
Nautical Twilight 1:35 AM CEST 12:45 AM CEST
Astronomical Twilight Sun does not set Sun does not set
Moon 7:18 AM CEST (7/10) 10:09 PM CEST (7/10)
Length of Visible Light 19h 02m
Length of Day
17h 08m
Waxing Crescent, 4% of the Moon is Illuminated
Jul 10
Waxing Crescent
Jul 16
First Quarter
Jul 22
Full
Jul 29
Last Quarter
Aug 6
New

Hourly Weather History & Observations

Time (CEST) Temp. Dew Point Humidity Pressure Visibility Wind Dir Wind Speed Gust Speed Precip Events Conditions
12:20 AM 66.2 °F 59.0 °F 78% 30.04 in - West 12.7 mph - N/A   Clear
12:50 AM 64.4 °F 59.0 °F 83% 30.04 in - West 12.7 mph - N/A   Clear
1:20 AM 64.4 °F 55.4 °F 73% 30.04 in - West 13.8 mph - N/A   Clear
1:50 AM 64.4 °F 55.4 °F 73% 30.04 in - West 13.8 mph - N/A   Clear
2:00 AM 63 °F 55 °F 69% 30.04 in 12 mi West 12.7 mph - -   Clear
2:20 AM 62.6 °F 55.4 °F 77% 30.01 in - West 13.8 mph - N/A   Clear
2:50 AM 60.8 °F 55.4 °F 82% 30.01 in 6.2 mi West 10.4 mph - N/A   Scattered Clouds
3:20 AM 62.6 °F 55.4 °F 77% 30.01 in 6.2 mi WNW 16.1 mph - N/A   Mostly Cloudy
3:50 AM 60.8 °F 55.4 °F 82% 30.01 in 6.2 mi West 12.7 mph - N/A   Mostly Cloudy
4:20 AM 62.6 °F 53.6 °F 72% 30.01 in 6.2 mi WNW 15.0 mph - N/A   Mostly Cloudy
4:50 AM 60.8 °F 53.6 °F 77% 29.98 in 6.2 mi WNW 17.3 mph - N/A   Mostly Cloudy
5:00 AM 61 °F 52 °F 65% 29.99 in 9 mi WNW 17.3 mph - -   Mostly Cloudy
5:20 AM 60.8 °F 51.8 °F 72% 29.98 in 6.2 mi NW 13.8 mph - N/A   Mostly Cloudy
5:50 AM 59.0 °F 51.8 °F 77% 29.98 in 6.2 mi NW 15.0 mph - N/A   Mostly Cloudy
6:20 AM 59.0 °F 50.0 °F 72% 29.98 in 6.2 mi NW 19.6 mph - N/A   Mostly Cloudy
6:50 AM 59.0 °F 50.0 °F 72% 29.98 in 6.2 mi NW 16.1 mph - N/A   Mostly Cloudy
7:20 AM 59.0 °F 50.0 °F 72% 29.98 in 6.2 mi WNW 17.3 mph - N/A   Mostly Cloudy
7:50 AM 59.0 °F 50.0 °F 72% 29.98 in 6.2 mi WNW 16.1 mph - N/A   Mostly Cloudy
8:00 AM 60 °F 51 °F 63% 29.98 in 12 mi WNW 18.4 mph - -   Mostly Cloudy
8:20 AM 60.8 °F 50.0 °F 68% 29.95 in 6.2 mi WNW 17.3 mph - N/A   Mostly Cloudy
8:50 AM 60.8 °F 51.8 °F 72% 29.95 in 6.2 mi WNW 18.4 mph - N/A   Mostly Cloudy
9:20 AM 62.6 °F 51.8 °F 68% 29.95 in 6.2 mi WNW 15.0 mph 26.5 mph N/A   Mostly Cloudy
9:50 AM 64.4 °F 51.8 °F 64% 29.95 in 6.2 mi WNW 16.1 mph - N/A   Mostly Cloudy
10:20 AM 64.4 °F 50.0 °F 59% 29.95 in 6.2 mi NW 19.6 mph 31.1 mph N/A   Mostly Cloudy
10:50 AM 64.4 °F 48.2 °F 56% 29.95 in 6.2 mi NW 19.6 mph - N/A   Mostly Cloudy
11:00 AM 67 °F 49 °F 42% 29.96 in 16 mi NW 21.9 mph - -   Mostly Cloudy
11:20 AM 66.2 °F 50.0 °F 56% 29.95 in 6.2 mi NW 20.7 mph - N/A   Scattered Clouds
11:50 AM 66.2 °F 48.2 °F 52% 29.95 in 6.2 mi NW 19.6 mph 33.4 mph N/A   Partly Cloudy
12:20 PM 66.2 °F 48.2 °F 52% 29.95 in 6.2 mi NW 20.7 mph - N/A   Mostly Cloudy
12:50 PM 64.4 °F 50.0 °F 59% 29.95 in 6.2 mi NNW 19.6 mph - N/A   Mostly Cloudy
1:20 PM 62.6 °F 50.0 °F 63% 29.95 in 6.2 mi NNW 19.6 mph - N/A   Mostly Cloudy
1:50 PM 62.6 °F 48.2 °F 59% 29.95 in 6.2 mi NNW 23.0 mph - N/A   Mostly Cloudy
2:20 PM 62.6 °F 50.0 °F 63% 29.95 in 6.2 mi NNW 19.6 mph - N/A   Mostly Cloudy
2:50 PM 62.6 °F 48.2 °F 59% 29.98 in 6.2 mi NNW 19.6 mph 32.2 mph N/A   Mostly Cloudy
3:20 PM 62.6 °F 50.0 °F 63% 29.98 in 6.2 mi NNW 19.6 mph - N/A   Mostly Cloudy
3:50 PM 62.6 °F 50.0 °F 63% 29.98 in 6.2 mi NNW 18.4 mph 32.2 mph N/A   Mostly Cloudy
4:20 PM 62.6 °F 50.0 °F 63% 29.98 in 6.2 mi NNW 17.3 mph - N/A   Mostly Cloudy
4:50 PM 64.4 °F 48.2 °F 56% 29.98 in 6.2 mi NNW 24.2 mph - N/A   Mostly Cloudy
5:00 PM 63 °F 49 °F 50% 30.00 in 31 mi North 25.3 mph - -   Overcast
5:20 PM 64.4 °F 50.0 °F 59% 29.98 in 6.2 mi North 24.2 mph - N/A   Mostly Cloudy
5:50 PM 64.4 °F 50.0 °F 59% 29.98 in 6.2 mi North 23.0 mph - N/A   Mostly Cloudy
6:00 PM 64 °F 49 °F 48% 30.00 in - North 21.9 mph - -   Mostly Cloudy
6:20 PM 64.4 °F 50.0 °F 59% 29.98 in 6.2 mi North 19.6 mph 32.2 mph N/A   Mostly Cloudy
6:50 PM 64.4 °F 50.0 °F 59% 29.98 in 6.2 mi North 20.7 mph - N/A   Mostly Cloudy
7:00 PM 64 °F 49 °F 48% 30.00 in - North 20.7 mph - -   Mostly Cloudy
7:20 PM 64.4 °F 50.0 °F 59% 29.98 in 6.2 mi North 19.6 mph - N/A   Mostly Cloudy
7:50 PM 64.4 °F 50.0 °F 59% 29.98 in 6.2 mi NNW 17.3 mph - N/A   Mostly Cloudy
8:00 PM 64 °F 50 °F 50% 30.00 in 31 mi NNW 17.3 mph - -   Mostly Cloudy
8:20 PM 64.4 °F 50.0 °F 59% 30.01 in 6.2 mi NNW 16.1 mph - N/A   Scattered Clouds
8:50 PM 64.4 °F 50.0 °F 59% 30.01 in 6.2 mi North 17.3 mph - N/A   Mostly Cloudy
9:00 PM 64 °F 50 °F 51% 30.01 in - NNW 17.3 mph - -   Mostly Cloudy
9:20 PM 62.6 °F 50.0 °F 63% 30.01 in 6.2 mi North 16.1 mph - N/A   Mostly Cloudy
9:50 PM 62.6 °F 50.0 °F 63% 30.01 in 6.2 mi North 13.8 mph - N/A   Mostly Cloudy
10:00 PM 63 °F 50 °F 54% 30.02 in - North 12.7 mph - -   Mostly Cloudy
10:20 PM 62.6 °F 51.8 °F 68% 30.01 in 6.2 mi North 12.7 mph - N/A   Mostly Cloudy
10:50 PM 62.6 °F 50.0 °F 63% 30.01 in 6.2 mi North 17.3 mph - N/A   Mostly Cloudy
11:00 PM 62 °F 49 °F 54% 30.03 in 31 mi North 17.3 mph - -   Partly Cloudy
11:20 PM 60.8 °F 50.0 °F 68% 30.01 in 6.2 mi North 16.1 mph - N/A   Scattered Clouds
11:50 PM 60.8 °F 50.0 °F 68% 30.04 in 6.2 mi North 15.0 mph - N/A   Mostly Cloudy